| time (UTC) | temp F | wind direction | speed MPH | gust MPH | rain 1hr in | rain 24hr in | rain mn in | humidity % | barometer mb |
| 20260904021204 | 65 | 200 | 5.0 | 10.0 | 0.00 | 0.00 | 0.00 | 88 | 1013.0 |
| 20260904020704 | 65 | 200 | 5.0 | 11.0 | 0.00 | 0.00 | 0.00 | 87 | 1013.0 |
| 20260904020205 | 66 | 196 | 5.0 | 11.0 | 0.00 | 0.00 | 0.00 | 87 | 1013.1 |
| 20260904015704 | 66 | 200 | 6.0 | 12.0 | 0.00 | 0.00 | 0.00 | 86 | 1013.1 |
| 20260904015204 | 66 | 188 | 6.0 | 12.0 | 0.00 | 0.00 | 0.00 | 86 | 1013.1 |
| 20260904014705 | 67 | 197 | 6.0 | 12.0 | 0.00 | 0.00 | 0.00 | 85 | 1013.2 |
| 20260904014204 | 67 | 217 | 5.0 | 9.0 | 0.00 | 0.00 | 0.00 | 85 | 1013.2 |
| 20260904013704 | 67 | 200 | 5.0 | 11.0 | 0.00 | 0.00 | 0.00 | 85 | 1013.2 |
| 20260904013204 | 67 | 176 | 5.0 | 11.0 | 0.00 | 0.00 | 0.00 | 85 | 1013.2 |
| 20260904012705 | 67 | 223 | 6.0 | 11.0 | 0.00 | 0.00 | 0.00 | 85 | 1013.2 |
| 20260904012205 | 67 | 192 | 6.0 | 9.0 | 0.00 | 0.00 | 0.00 | 84 | 1013.2 |
| 20260904011205 | 67 | 220 | 5.0 | 10.0 | 0.00 | 0.00 | 0.00 | 84 | 1013.2 |
| 20260904010204 | 67 | 203 | 5.0 | 12.0 | 0.00 | 0.00 | 0.00 | 84 | 1013.3 |
| 20260904005704 | 67 | 216 | 5.0 | 12.0 | 0.00 | 0.00 | 0.00 | 83 | 1013.4 |
| 20260904005204 | 67 | 173 | 5.0 | 12.0 | 0.00 | 0.00 | 0.00 | 84 | 1013.3 |
| 20260904004705 | 67 | 182 | 5.0 | 12.0 | 0.00 | 0.00 | 0.00 | 84 | 1013.3 |
| 20260904004204 | 67 | 179 | 6.0 | 14.0 | 0.00 | 0.00 | 0.00 | 84 | 1013.3 |
| 20260904003704 | 67 | 244 | 7.0 | 14.0 | 0.00 | 0.00 | 0.00 | 84 | 1013.3 |
| 20260904003204 | 67 | 197 | 7.0 | 14.0 | 0.00 | 0.00 | 0.00 | 83 | 1013.3 |
| 20260904002704 | 67 | 202 | 7.0 | 13.0 | 0.00 | 0.00 | 0.00 | 83 | 1013.4 |
| 20260904002204 | 68 | 216 | 7.0 | 16.0 | 0.00 | 0.00 | 0.00 | 83 | 1013.4 |
| 20260904000705 | 68 | 216 | 7.0 | 12.0 | 0.00 | 0.00 | 0.00 | 81 | 1013.5 |
| 20260904000204 | 69 | 196 | 6.0 | 12.0 | 0.00 | 0.00 | 0.00 | 81 | 1013.4 |
| 20260903235705 | 69 | 181 | 6.0 | 12.0 | 0.00 | 0.00 | 0.00 | 81 | 1013.4 |
| 20260903235205 | 69 | 173 | 7.0 | 12.0 | 0.00 | 0.00 | 0.00 | 81 | 1013.6 |
| 20260903233705 | 68 | 202 | 7.0 | 16.0 | 0.00 | 0.00 | 0.00 | 81 | 1013.7 |
| 20260903233205 | 69 | 200 | 6.0 | 13.0 | 0.00 | 0.00 | 0.00 | 81 | 1013.7 |
| 20260903232704 | 69 | 211 | 6.0 | 14.0 | 0.00 | 0.00 | 0.00 | 81 | 1013.7 |
| 20260903231704 | 68 | 205 | 8.0 | 14.0 | 0.00 | 0.00 | 0.00 | 81 | 1013.7 |
| 20260903231204 | 69 | 223 | 7.0 | 13.0 | 0.00 | 0.00 | 0.00 | 80 | 1013.7 |
| 20260903230704 | 69 | 229 | 7.0 | 13.0 | 0.00 | 0.00 | 0.00 | 79 | 1013.9 |
| 20260903230205 | 69 | 211 | 7.0 | 14.0 | 0.00 | 0.00 | 0.00 | 80 | 1013.8 |
| 20260903225204 | 69 | 213 | 8.0 | 14.0 | 0.00 | 0.00 | 0.00 | 79 | 1014.0 |
| 20260903224704 | 69 | 205 | 8.0 | 14.0 | 0.00 | 0.00 | 0.00 | 79 | 1014.0 |
| 20260903224204 | 69 | 177 | 7.0 | 14.0 | 0.00 | 0.00 | 0.00 | 79 | 1014.1 |
| 20260903223704 | 69 | 179 | 7.0 | 15.0 | 0.00 | 0.00 | 0.00 | 79 | 1014.0 |
| 20260903223204 | 69 | 211 | 7.0 | 15.0 | 0.00 | 0.00 | 0.00 | 79 | 1014.1 |
| 20260903222705 | 69 | 183 | 7.0 | 15.0 | 0.00 | 0.00 | 0.00 | 80 | 1014.1 |
| 20260903222205 | 69 | 267 | 8.0 | 14.0 | 0.00 | 0.00 | 0.00 | 80 | 1014.1 |
| 20260903221704 | 69 | 207 | 8.0 | 15.0 | 0.00 | 0.00 | 0.00 | 80 | 1014.2 |
| 20260903220704 | 68 | 183 | 8.0 | 15.0 | 0.00 | 0.00 | 0.00 | 80 | 1014.3 |
| 20260903220205 | 68 | 182 | 8.0 | 15.0 | 0.00 | 0.00 | 0.00 | 79 | 1014.4 |
| 20260903214704 | 69 | 232 | 6.0 | 12.0 | 0.00 | 0.00 | 0.00 | 77 | 1014.5 |
| 20260903213704 | 69 | 208 | 6.0 | 10.0 | 0.00 | 0.00 | 0.00 | 79 | 1014.6 |
| 20260903213204 | 69 | 255 | 5.0 | 14.0 | 0.00 | 0.00 | 0.00 | 80 | 1014.7 |
| 20260903212704 | 68 | 189 | 7.0 | 20.0 | 0.00 | 0.00 | 0.00 | 81 | 1014.7 |
| 20260903212205 | 67 | 182 | 8.0 | 20.0 | 0.00 | 0.00 | 0.00 | 81 | 1014.7 |
| 20260903211205 | 67 | 203 | 9.0 | 17.0 | 0.00 | 0.00 | 0.00 | 80 | 1014.9 |
| 20260903210704 | 67 | 205 | 10.0 | 17.0 | 0.00 | 0.00 | 0.00 | 80 | 1014.9 |
| 20260903210204 | 67 | 186 | 9.0 | 17.0 | 0.00 | 0.00 | 0.00 | 79 | 1015.0 |
| 20260903205704 | 67 | 210 | 7.0 | 13.0 | 0.00 | 0.00 | 0.00 | 78 | 1015.0 |
| 20260903205204 | 68 | 243 | 7.0 | 13.0 | 0.00 | 0.00 | 0.00 | 78 | 1015.1 |
| 20260903204705 | 67 | 205 | 7.0 | 13.0 | 0.00 | 0.00 | 0.00 | 78 | 1015.0 |
| 20260903204205 | 68 | 166 | 6.0 | 10.0 | 0.00 | 0.00 | 0.00 | 77 | 1015.0 |
| 20260903203704 | 68 | 217 | 6.0 | 11.0 | 0.00 | 0.00 | 0.00 | 76 | 1015.1 |
| 20260903203205 | 68 | 211 | 5.0 | 14.0 | 0.00 | 0.00 | 0.00 | 77 | 1015.0 |
| 20260903202705 | 68 | 188 | 6.0 | 14.0 | 0.00 | 0.00 | 0.00 | 77 | 1015.2 |
| 20260903201704 | 67 | 178 | 8.0 | 14.0 | 0.00 | 0.00 | 0.00 | 77 | 1015.1 |
| 20260903200704 | 68 | 212 | 7.0 | 11.0 | 0.00 | 0.00 | 0.00 | 75 | 1015.2 |
| 20260903195704 | 69 | 245 | 5.0 | 11.0 | 0.00 | 0.00 | 0.00 | 77 | 1015.3 |
| 20260903194705 | 67 | 196 | 6.0 | 13.0 | 0.00 | 0.00 | 0.00 | 78 | 1015.5 |
| 20260903193204 | 67 | 218 | 7.0 | 14.0 | 0.00 | 0.00 | 0.00 | 78 | 1015.6 |
| 20260903192705 | 67 | 182 | 8.0 | 14.0 | 0.00 | 0.00 | 0.00 | 78 | 1015.5 |
| 20260903192204 | 67 | 199 | 6.0 | 12.0 | 0.00 | 0.00 | 0.00 | 77 | 1015.7 |
| 20260903191204 | 68 | 188 | 5.0 | 9.0 | 0.00 | 0.00 | 0.00 | 75 | 1015.7 |
| 20260903190704 | 69 | 207 | 4.0 | 10.0 | 0.00 | 0.00 | 0.00 | 76 | 1015.8 |
| 20260903185705 | 67 | 184 | 5.0 | 9.0 | 0.00 | 0.00 | 0.00 | 76 | 1016.0 |
| 20260903184705 | 68 | 186 | 4.0 | 9.0 | 0.00 | 0.00 | 0.00 | 75 | 1016.2 |
| 20260903184205 | 68 | 196 | 4.0 | 8.0 | 0.00 | 0.00 | 0.00 | 75 | 1016.2 |
| 20260903183705 | 67 | 235 | 4.0 | 8.0 | 0.00 | 0.00 | 0.00 | 76 | 1016.2 |
| 20260903183204 | 67 | 235 | 4.0 | 8.0 | 0.00 | 0.00 | 0.00 | 76 | 1016.2 |
| 20260903182704 | 67 | 236 | 4.0 | 8.0 | 0.00 | 0.00 | 0.00 | 77 | 1016.4 |
| 20260903182204 | 67 | 182 | 4.0 | 8.0 | 0.00 | 0.00 | 0.00 | 78 | 1016.4 |
| 20260903181705 | 67 | 182 | 4.0 | 8.0 | 0.00 | 0.00 | 0.00 | 78 | 1016.3 |
| 20260903181204 | 66 | 110 | 4.0 | 8.0 | 0.00 | 0.00 | 0.00 | 79 | 1016.3 |
| 20260903180205 | 65 | 186 | 5.0 | 9.0 | 0.00 | 0.00 | 0.00 | 79 | 1016.3 |
| 20260903175704 | 65 | 178 | 5.0 | 10.0 | 0.00 | 0.00 | 0.00 | 79 | 1016.2 |
| 20260903174705 | 65 | 160 | 4.0 | 8.0 | 0.00 | 0.00 | 0.00 | 79 | 1016.2 |
| 20260903174204 | 65 | 126 | 4.0 | 8.0 | 0.00 | 0.00 | 0.00 | 79 | 1016.1 |
| 20260903173704 | 65 | 151 | 4.0 | 8.0 | 0.00 | 0.00 | 0.00 | 79 | 1016.2 |
| 20260903173204 | 65 | 181 | 4.0 | 8.0 | 0.00 | 0.00 | 0.00 | 79 | 1016.3 |
| 20260903172705 | 65 | 143 | 4.0 | 8.0 | 0.00 | 0.00 | 0.00 | 79 | 1016.3 |
| 20260903172204 | 65 | 193 | 3.0 | 8.0 | 0.00 | 0.00 | 0.00 | 80 | 1016.2 |
| 20260903171705 | 65 | 145 | 4.0 | 8.0 | 0.00 | 0.00 | 0.00 | 80 | 1016.2 |
| 20260903171204 | 65 | 127 | 3.0 | 9.0 | 0.00 | 0.00 | 0.00 | 81 | 1016.2 |
| 20260903170705 | 65 | 128 | 3.0 | 9.0 | 0.00 | 0.00 | 0.00 | 81 | 1016.2 |
| 20260903170205 | 65 | 172 | 3.0 | 9.0 | 0.00 | 0.00 | 0.00 | 81 | 1016.3 |
| 20260903165704 | 64 | 116 | 3.0 | 7.0 | 0.00 | 0.00 | 0.00 | 82 | 1016.4 |
| 20260903165204 | 64 | 134 | 3.0 | 5.0 | 0.00 | 0.00 | 0.00 | 83 | 1016.3 |
| 20260903164705 | 63 | 143 | 3.0 | 5.0 | 0.00 | 0.00 | 0.00 | 83 | 1016.2 |
| 20260903164205 | 63 | 190 | 3.0 | 7.0 | 0.00 | 0.00 | 0.00 | 84 | 1016.3 |
| 20260903162705 | 63 | 126 | 4.0 | 8.0 | 0.00 | 0.00 | 0.00 | 85 | 1016.5 |
| 20260903162204 | 62 | 138 | 3.0 | 7.0 | 0.00 | 0.00 | 0.00 | 85 | 1016.5 |
| 20260903161705 | 62 | 113 | 3.0 | 7.0 | 0.00 | 0.00 | 0.00 | 86 | 1016.5 |
| 20260903161204 | 62 | 180 | 4.0 | 7.0 | 0.00 | 0.00 | 0.00 | 87 | 1016.6 |
| 20260903160704 | 62 | 126 | 2.0 | 5.0 | 0.00 | 0.00 | 0.00 | 88 | 1016.7 |
| 20260903160205 | 62 | 117 | 0.0 | 3.0 | 0.00 | 0.00 | 0.00 | 89 | 1016.7 |
| 20260903155704 | 61 | 142 | 0.0 | 3.0 | 0.00 | 0.00 | 0.00 | 89 | 1016.8 |
| 20260903155204 | 61 | 202 | 0.0 | 3.0 | 0.00 | 0.00 | 0.00 | 90 | 1016.7 |
| 20260903154704 | 60 | 72 | 0.0 | 0.0 | 0.00 | 0.00 | 0.00 | 90 | 1016.7 |
| 20260903154204 | 60 | 72 | 0.0 | 0.0 | 0.00 | 0.00 | 0.00 | 91 | 1016.7 |
| 20260903153204 | 59 | 298 | 0.0 | 3.0 | 0.00 | 0.00 | 0.00 | 91 | 1016.7 |
| 20260903152704 | 58 | 19 | 0.0 | 3.0 | 0.00 | 0.00 | 0.00 | 91 | 1016.6 |
| 20260903152205 | 58 | 5 | 0.0 | 4.0 | 0.00 | 0.00 | 0.00 | 91 | 1016.7 |
| 20260903151704 | 57 | 51 | 0.0 | 4.0 | 0.00 | 0.00 | 0.00 | 91 | 1016.6 |
| 20260903151205 | 57 | 58 | 0.0 | 4.0 | 0.00 | 0.00 | 0.00 | 92 | 1016.7 |
| 20260903150204 | 56 | 331 | 0.0 | 4.0 | 0.00 | 0.00 | 0.00 | 92 | 1016.8 |
| 20260903145705 | 56 | 20 | 1.0 | 4.0 | 0.00 | 0.00 | 0.00 | 92 | 1016.8 |
| 20260903145204 | 55 | 40 | 1.0 | 4.0 | 0.00 | 0.00 | 0.00 | 92 | 1016.7 |
| 20260903144705 | 55 | 41 | 1.0 | 3.0 | 0.00 | 0.00 | 0.00 | 92 | 1016.6 |
| 20260903144204 | 55 | 351 | 1.0 | 3.0 | 0.00 | 0.00 | 0.00 | 92 | 1016.7 |
| 20260903143204 | 55 | 5 | 1.0 | 3.0 | 0.00 | 0.00 | 0.00 | 92 | 1016.6 |
| 20260903142705 | 55 | 5 | 1.0 | 4.0 | 0.00 | 0.00 | 0.00 | 92 | 1016.6 |
| 20260903142205 | 54 | 0 | 1.0 | 4.0 | 0.00 | 0.00 | 0.00 | 92 | 1016.5 |
| 20260903141704 | 54 | 332 | 1.0 | 4.0 | 0.00 | 0.00 | 0.00 | 92 | 1016.5 |
| 20260903140704 | 54 | 355 | 1.0 | 4.0 | 0.00 | 0.00 | 0.00 | 92 | 1016.4 |
| 20260903140204 | 54 | 325 | 1.0 | 4.0 | 0.00 | 0.00 | 0.00 | 92 | 1016.4 |
| 20260903135705 | 54 | 345 | 2.0 | 4.0 | 0.00 | 0.00 | 0.00 | 92 | 1016.3 |
| 20260903135204 | 54 | 14 | 2.0 | 4.0 | 0.00 | 0.00 | 0.00 | 92 | 1016.3 |
| 20260903134205 | 54 | 355 | 1.0 | 3.0 | 0.00 | 0.00 | 0.00 | 92 | 1016.3 |
| 20260903133705 | 54 | 332 | 1.0 | 2.0 | 0.00 | 0.00 | 0.00 | 92 | 1016.3 |
| 20260903133205 | 54 | 10 | 0.0 | 3.0 | 0.00 | 0.00 | 0.00 | 92 | 1016.3 |
| 20260903132705 | 54 | 16 | 0.0 | 4.0 | 0.00 | 0.00 | 0.00 | 92 | 1016.2 |
| 20260903132204 | 54 | 16 | 1.0 | 4.0 | 0.00 | 0.00 | 0.00 | 92 | 1016.3 |
| 20260903131704 | 54 | 337 | 1.0 | 4.0 | 0.00 | 0.00 | 0.00 | 92 | 1016.1 |
| 20260903131205 | 54 | 24 | 1.0 | 4.0 | 0.00 | 0.00 | 0.00 | 92 | 1016.1 |
| 20260903130704 | 54 | 36 | 1.0 | 4.0 | 0.00 | 0.00 | 0.00 | 92 | 1016.1 |
| 20260903130204 | 54 | 46 | 1.0 | 4.0 | 0.00 | 0.00 | 0.00 | 92 | 1016.1 |
| 20260903125704 | 54 | 9 | 1.0 | 4.0 | 0.00 | 0.00 | 0.00 | 92 | 1016.1 |
| 20260903124704 | 54 | 15 | 1.0 | 3.0 | 0.00 | 0.00 | 0.00 | 91 | 1016.2 |
| 20260903124205 | 54 | 25 | 1.0 | 0.0 | 0.00 | 0.00 | 0.00 | 91 | 1016.3 |
| 20260903123704 | 54 | 337 | 0.0 | 0.0 | 0.00 | 0.00 | 0.00 | 91 | 1016.5 |
| 20260903123205 | 54 | 337 | 0.0 | 1.0 | 0.00 | 0.00 | 0.00 | 91 | 1016.4 |
| 20260903122704 | 54 | 337 | 0.0 | 3.0 | 0.00 | 0.00 | 0.00 | 91 | 1016.5 |
| 20260903122204 | 54 | 337 | 0.0 | 4.0 | 0.00 | 0.00 | 0.00 | 91 | 1016.4 |
| 20260903121705 | 54 | 336 | 1.0 | 4.0 | 0.00 | 0.00 | 0.00 | 91 | 1016.4 |
| 20260903121204 | 54 | 336 | 1.0 | 4.0 | 0.00 | 0.00 | 0.00 | 91 | 1016.4 |
| 20260903120704 | 54 | 333 | 1.0 | 3.0 | 0.00 | 0.00 | 0.00 | 91 | 1016.4 |
| 20260903115705 | 54 | 5 | 1.0 | 3.0 | 0.00 | 0.00 | 0.00 | 91 | 1016.5 |
| 20260903115204 | 54 | 325 | 1.0 | 3.0 | 0.00 | 0.00 | 0.00 | 91 | 1016.5 |
| 20260903114704 | 54 | 0 | 1.0 | 3.0 | 0.00 | 0.00 | 0.00 | 91 | 1016.5 |
| 20260903114205 | 54 | 355 | 0.0 | 3.0 | 0.00 | 0.00 | 0.00 | 91 | 1016.5 |
| 20260903113704 | 54 | 21 | 0.0 | 0.0 | 0.00 | 0.00 | 0.00 | 91 | 1016.5 |
| 20260903113205 | 54 | 343 | 0.0 | 0.0 | 0.00 | 0.00 | 0.00 | 91 | 1016.6 |
| 20260903112704 | 55 | 343 | 0.0 | 0.0 | 0.00 | 0.00 | 0.00 | 91 | 1016.7 |
| 20260903112205 | 55 | 343 | 0.0 | 0.0 | 0.00 | 0.00 | 0.00 | 91 | 1016.8 |
| 20260903111704 | 55 | 355 | 0.0 | 0.0 | 0.00 | 0.00 | 0.00 | 91 | 1016.8 |
| 20260903111204 | 55 | 355 | 0.0 | 0.0 | 0.00 | 0.00 | 0.00 | 91 | 1016.9 |
| 20260903110204 | 55 | 355 | 0.0 | 0.0 | 0.00 | 0.00 | 0.00 | 91 | 1016.8 |
| 20260903105705 | 55 | 355 | 0.0 | 0.0 | 0.00 | 0.00 | 0.00 | 91 | 1016.9 |
| 20260903105204 | 55 | 343 | 0.0 | 0.0 | 0.00 | 0.00 | 0.00 | 91 | 1016.8 |
| 20260903104704 | 55 | 338 | 0.0 | 0.0 | 0.00 | 0.00 | 0.00 | 90 | 1016.9 |
| 20260903104205 | 55 | 338 | 0.0 | 0.0 | 0.00 | 0.00 | 0.00 | 90 | 1016.9 |
| 20260903103205 | 55 | 5 | 0.0 | 0.0 | 0.00 | 0.00 | 0.00 | 91 | 1016.8 |
| 20260903102705 | 55 | 338 | 0.0 | 0.0 | 0.00 | 0.00 | 0.00 | 90 | 1016.8 |
| 20260903102204 | 55 | 338 | 0.0 | 0.0 | 0.00 | 0.00 | 0.00 | 90 | 1016.9 |
| 20260903101204 | 55 | 338 | 0.0 | 0.0 | 0.00 | 0.00 | 0.00 | 90 | 1016.9 |
| 20260903100705 | 56 | 338 | 0.0 | 0.0 | 0.00 | 0.00 | 0.00 | 90 | 1016.8 |
| 20260903100204 | 56 | 5 | 0.0 | 0.0 | 0.00 | 0.00 | 0.00 | 90 | 1016.9 |
| 20260903095704 | 56 | 5 | 0.0 | 0.0 | 0.00 | 0.00 | 0.00 | 90 | 1016.9 |
| 20260903095205 | 56 | 5 | 0.0 | 0.0 | 0.00 | 0.00 | 0.00 | 90 | 1016.8 |
| 20260903094704 | 56 | 5 | 0.0 | 0.0 | 0.00 | 0.00 | 0.00 | 90 | 1016.8 |
| 20260903094204 | 56 | 5 | 0.0 | 0.0 | 0.00 | 0.00 | 0.00 | 90 | 1017.0 |
| 20260903093704 | 56 | 5 | 0.0 | 0.0 | 0.00 | 0.00 | 0.00 | 90 | 1017.0 |
| 20260903093205 | 56 | 5 | 0.0 | 0.0 | 0.00 | 0.00 | 0.00 | 90 | 1017.1 |
| 20260903092704 | 56 | 5 | 0.0 | 0.0 | 0.00 | 0.00 | 0.00 | 90 | 1017.2 |
| 20260903092205 | 56 | 5 | 0.0 | 0.0 | 0.00 | 0.00 | 0.00 | 90 | 1017.2 |
| 20260903091704 | 56 | 5 | 0.0 | 0.0 | 0.00 | 0.00 | 0.00 | 90 | 1017.3 |
| 20260903091205 | 56 | 20 | 0.0 | 0.0 | 0.00 | 0.00 | 0.00 | 90 | 1017.4 |
| 20260903090705 | 56 | 350 | 0.0 | 0.0 | 0.00 | 0.00 | 0.00 | 90 | 1017.3 |
| 20260903090205 | 56 | 5 | 0.0 | 0.0 | 0.00 | 0.00 | 0.00 | 90 | 1017.3 |
| 20260903085704 | 56 | 22 | 0.0 | 0.0 | 0.00 | 0.00 | 0.00 | 90 | 1017.3 |
| 20260903085204 | 56 | 21 | 0.0 | 0.0 | 0.00 | 0.00 | 0.00 | 89 | 1017.3 |
| 20260903084205 | 57 | 32 | 0.0 | 0.0 | 0.00 | 0.00 | 0.00 | 89 | 1017.5 |
| 20260903083704 | 57 | 44 | 0.0 | 0.0 | 0.00 | 0.00 | 0.00 | 89 | 1017.4 |
| 20260903082204 | 57 | 20 | 1.0 | 3.0 | 0.00 | 0.00 | 0.00 | 89 | 1017.4 |
| 20260903081704 | 57 | 40 | 1.0 | 3.0 | 0.00 | 0.00 | 0.00 | 89 | 1017.4 |
| 20260903081205 | 57 | 0 | 1.0 | 3.0 | 0.00 | 0.00 | 0.00 | 89 | 1017.3 |
| 20260903080704 | 57 | 14 | 1.0 | 3.0 | 0.00 | 0.00 | 0.00 | 89 | 1017.4 |
| 20260903080204 | 58 | 28 | 0.0 | 3.0 | 0.00 | 0.00 | 0.00 | 89 | 1017.4 |
| 20260903075704 | 58 | 46 | 0.0 | 2.0 | 0.00 | 0.00 | 0.00 | 89 | 1017.3 |
| 20260903074705 | 58 | 10 | 1.0 | 3.0 | 0.00 | 0.00 | 0.00 | 89 | 1017.3 |
| 20260903074204 | 58 | 345 | 1.0 | 2.0 | 0.00 | 0.00 | 0.00 | 89 | 1017.3 |
| 20260903073704 | 58 | 31 | 0.0 | 2.0 | 0.00 | 0.00 | 0.00 | 89 | 1017.3 |
| 20260903072704 | 58 | 41 | 1.0 | 2.0 | 0.00 | 0.00 | 0.00 | 89 | 1017.2 |
| 20260903072205 | 58 | 41 | 0.0 | 0.0 | 0.00 | 0.00 | 0.00 | 89 | 1017.3 |
| 20260903071704 | 59 | 41 | 0.0 | 0.0 | 0.00 | 0.00 | 0.00 | 89 | 1017.3 |
| 20260903071204 | 59 | 111 | 0.0 | 0.0 | 0.00 | 0.00 | 0.00 | 89 | 1017.3 |
| 20260903070705 | 59 | 111 | 0.0 | 0.0 | 0.00 | 0.00 | 0.00 | 89 | 1017.3 |
| 20260903065704 | 59 | 111 | 0.0 | 0.0 | 0.00 | 0.00 | 0.00 | 89 | 1017.3 |
| 20260903065204 | 59 | 111 | 0.0 | 0.0 | 0.00 | 0.00 | 0.00 | 89 | 1017.3 |
| 20260903064704 | 60 | 111 | 0.0 | 0.0 | 0.00 | 0.00 | 0.00 | 89 | 1017.2 |
| 20260903064205 | 60 | 111 | 0.0 | 0.0 | 0.00 | 0.00 | 0.00 | 89 | 1017.3 |
| 20260903063704 | 60 | 111 | 0.0 | 0.0 | 0.00 | 0.00 | 0.00 | 89 | 1017.3 |
| 20260903063204 | 60 | 111 | 0.0 | 1.0 | 0.00 | 0.00 | 0.00 | 89 | 1017.3 |
| 20260903062705 | 60 | 111 | 0.0 | 1.0 | 0.00 | 0.00 | 0.00 | 89 | 1017.2 |
| 20260903062204 | 60 | 111 | 0.0 | 2.0 | 0.00 | 0.00 | 0.00 | 89 | 1017.2 |
| 20260903061204 | 60 | 111 | 1.0 | 4.0 | 0.00 | 0.00 | 0.00 | 89 | 1017.2 |
| 20260903060704 | 60 | 111 | 1.0 | 3.0 | 0.00 | 0.00 | 0.00 | 89 | 1017.2 |
| 20260903060204 | 60 | 111 | 1.0 | 5.0 | 0.00 | 0.00 | 0.00 | 88 | 1017.3 |
| 20260903055204 | 61 | 104 | 1.0 | 5.0 | 0.00 | 0.00 | 0.00 | 88 | 1017.4 |
| 20260903054704 | 61 | 69 | 1.0 | 5.0 | 0.00 | 0.00 | 0.00 | 88 | 1017.4 |
| 20260903054205 | 61 | 100 | 1.0 | 5.0 | 0.00 | 0.00 | 0.00 | 88 | 1017.4 |
| 20260903053705 | 61 | 131 | 1.0 | 7.0 | 0.00 | 0.00 | 0.00 | 87 | 1017.5 |
| 20260903053204 | 61 | 98 | 2.0 | 7.0 | 0.00 | 0.00 | 0.00 | 87 | 1017.5 |
| 20260903052704 | 61 | 134 | 2.0 | 9.0 | 0.00 | 0.00 | 0.00 | 87 | 1017.6 |
| 20260903052204 | 61 | 63 | 2.0 | 9.0 | 0.00 | 0.00 | 0.00 | 87 | 1017.6 |
| 20260903051705 | 61 | 115 | 3.0 | 9.0 | 0.00 | 0.00 | 0.00 | 87 | 1017.5 |
| 20260903051205 | 61 | 92 | 3.0 | 8.0 | 0.00 | 0.00 | 0.00 | 86 | 1017.5 |
| 20260903050704 | 62 | 57 | 2.0 | 5.0 | 0.00 | 0.00 | 0.00 | 86 | 1017.5 |
| 20260903045704 | 62 | 132 | 1.0 | 4.0 | 0.00 | 0.00 | 0.00 | 86 | 1017.4 |
| 20260903045205 | 62 | 126 | 0.0 | 0.0 | 0.00 | 0.00 | 0.00 | 86 | 1017.4 |
| 20260903044704 | 62 | 63 | 0.0 | 0.0 | 0.00 | 0.00 | 0.00 | 86 | 1017.4 |
| 20260903043704 | 62 | 63 | 0.0 | 2.0 | 0.00 | 0.00 | 0.00 | 86 | 1017.3 |
| 20260903043204 | 62 | 63 | 0.0 | 4.0 | 0.00 | 0.00 | 0.00 | 86 | 1017.2 |
| 20260903042205 | 63 | 117 | 1.0 | 4.0 | 0.00 | 0.00 | 0.00 | 86 | 1017.2 |
| 20260903041704 | 63 | 121 | 2.0 | 4.0 | 0.00 | 0.00 | 0.00 | 85 | 1017.1 |
| 20260903040705 | 63 | 119 | 0.0 | 2.0 | 0.00 | 0.00 | 0.00 | 85 | 1017.1 |
| 20260903040205 | 63 | 87 | 0.0 | 3.0 | 0.00 | 0.00 | 0.00 | 85 | 1017.0 |
| 20260903035704 | 63 | 87 | 0.0 | 3.0 | 0.00 | 0.00 | 0.00 | 84 | 1016.9 |
| 20260903035204 | 63 | 87 | 1.0 | 5.0 | 0.00 | 0.00 | 0.00 | 84 | 1016.8 |
| 20260903034704 | 63 | 67 | 2.0 | 5.0 | 0.00 | 0.00 | 0.00 | 84 | 1016.8 |
| 20260903034205 | 64 | 77 | 1.0 | 4.0 | 0.00 | 0.00 | 0.00 | 83 | 1016.7 |
| 20260903033704 | 64 | 74 | 0.0 | 4.0 | 0.00 | 0.00 | 0.00 | 83 | 1016.6 |
| 20260903032704 | 64 | 86 | 2.0 | 7.0 | 0.00 | 0.00 | 0.00 | 82 | 1016.5 |
| 20260903032205 | 65 | 54 | 2.0 | 7.0 | 0.00 | 0.00 | 0.00 | 81 | 1016.5 |
| 20260903031704 | 65 | 70 | 2.0 | 5.0 | 0.00 | 0.00 | 0.00 | 81 | 1016.4 |
| 20260903031204 | 65 | 84 | 1.0 | 2.0 | 0.00 | 0.00 | 0.00 | 80 | 1016.5 |
| 20260903030704 | 65 | 243 | 0.0 | 2.0 | 0.00 | 0.00 | 0.00 | 80 | 1016.4 |
| 20260903030205 | 65 | 243 | 0.0 | 2.0 | 0.00 | 0.00 | 0.00 | 79 | 1016.3 |
| 20260903025204 | 66 | 243 | 1.0 | 6.0 | 0.00 | 0.00 | 0.00 | 79 | 1016.2 |
| 20260903024704 | 66 | 243 | 3.0 | 6.0 | 0.00 | 0.00 | 0.00 | 79 | 1016.3 |
| 20260903024205 | 66 | 207 | 2.0 | 6.0 | 0.00 | 0.00 | 0.00 | 78 | 1016.3 |
| 20260903023704 | 66 | 213 | 1.0 | 4.0 | 0.00 | 0.00 | 0.00 | 78 | 1016.2 |
| 20260903023205 | 66 | 212 | 1.0 | 4.0 | 0.00 | 0.00 | 0.00 | 78 | 1016.3 |
| 20260903022705 | 66 | 212 | 2.0 | 5.0 | 0.00 | 0.00 | 0.00 | 78 | 1016.2 |
| 20260903022204 | 67 | 212 | 2.0 | 5.0 | 0.00 | 0.00 | 0.00 | 78 | 1016.3 |
| 20260903021705 | 67 | 209 | 3.0 | 6.0 | 0.00 | 0.00 | 0.00 | 77 | 1016.4 |